Time,TemperatureF,DewpointF,PressureIn,WindDirection,WindDirectionDegrees,WindSpeedMPH,WindSpeedGustMPH,Humidity,HourlyPrecipIn,Conditions,Clouds,dailyrainin,SoftwareType,DateUTC
2013-06-26 00:00:00,74.6,72.1,29.54,North,353,0.0,1.0,92,0.00,,,0.00,Wunderground v.1.15,2013-06-26 05:00:00,
2013-06-26 00:05:00,74.5,72.0,29.54,North,352,0.0,1.0,92,0.00,,,0.00,Wunderground v.1.15,2013-06-26 05:05:00,
2013-06-26 00:10:00,74.5,72.0,29.54,North,351,0.0,1.0,92,0.00,,,0.00,Wunderground v.1.15,2013-06-26 05:10:00,
2013-06-26 00:15:00,74.4,71.9,29.54,North,8,0.0,1.0,92,0.00,,,0.00,Wunderground v.1.15,2013-06-26 05:15:00,
2013-06-26 00:21:00,74.1,71.6,29.53,North,9,0.0,1.0,92,0.00,,,0.00,Wunderground v.1.15,2013-06-26 05:21:00,
2013-06-26 00:26:00,73.9,71.4,29.53,North,8,0.0,1.0,92,0.00,,,0.00,Wunderground v.1.15,2013-06-26 05:26:00,
2013-06-26 00:31:00,73.8,71.3,29.53,North,8,0.0,1.0,92,0.00,,,0.00,Wunderground v.1.15,2013-06-26 05:31:00,
2013-06-26 00:36:00,73.7,71.2,29.52,North,9,0.0,1.0,92,0.00,,,0.00,Wunderground v.1.15,2013-06-26 05:36:00,
2013-06-26 00:41:00,73.6,71.1,29.52,North,8,0.0,1.0,92,0.00,,,0.00,Wunderground v.1.15,2013-06-26 05:41:00,
2013-06-26 00:47:00,73.4,70.9,29.52,North,9,0.0,1.0,92,0.00,,,0.00,Wunderground v.1.15,2013-06-26 05:47:00,
2013-06-26 00:52:00,73.3,70.8,29.52,ESE,119,0.0,1.0,92,0.00,,,0.00,Wunderground v.1.15,2013-06-26 05:52:00,
2013-06-26 00:57:00,73.2,70.7,29.51,ESE,119,0.0,1.0,92,0.00,,,0.00,Wunderground v.1.15,2013-06-26 05:57:00,
2013-06-26 01:02:00,73.2,70.7,29.51,ENE,58,0.0,1.0,92,0.00,,,0.00,Wunderground v.1.15,2013-06-26 06:02:00,
2013-06-26 01:07:00,73.2,70.7,29.51,ENE,58,0.0,1.0,92,0.00,,,0.00,Wunderground v.1.15,2013-06-26 06:07:00,
2013-06-26 01:12:00,73.0,70.5,29.51,ENE,58,0.0,1.0,92,0.00,,,0.00,Wunderground v.1.15,2013-06-26 06:12:00,
2013-06-26 01:19:00,72.9,70.4,29.51,ENE,58,0.0,1.0,92,0.00,,,0.00,Wunderground v.1.15,2013-06-26 06:19:00,
2013-06-26 01:24:00,72.9,70.4,29.51,ENE,58,0.0,1.0,92,0.00,,,0.00,Wunderground v.1.15,2013-06-26 06:24:00,
2013-06-26 01:29:00,72.9,70.4,29.51,ENE,70,0.0,1.0,92,0.00,,,0.00,Wunderground v.1.15,2013-06-26 06:29:00,
2013-06-26 01:34:00,73.0,70.5,29.52,ENE,70,0.0,1.0,92,0.00,,,0.00,Wunderground v.1.15,2013-06-26 06:34:00,
2013-06-26 01:39:00,73.0,70.5,29.52,ENE,70,0.0,1.0,92,0.00,,,0.00,Wunderground v.1.15,2013-06-26 06:39:00,
2013-06-26 01:45:00,72.9,70.4,29.51,ENE,70,0.0,1.0,92,0.00,,,0.00,Wunderground v.1.15,2013-06-26 06:45:00,
2013-06-26 01:50:00,72.9,70.4,29.52,NE,51,0.0,1.0,92,0.00,,,0.00,Wunderground v.1.15,2013-06-26 06:50:00,
2013-06-26 01:55:00,72.9,70.4,29.52,NE,51,0.0,1.0,92,0.00,,,0.00,Wunderground v.1.15,2013-06-26 06:55:00,
2013-06-26 02:01:00,72.8,70.3,29.51,NE,51,0.0,1.0,92,0.00,,,0.00,Wunderground v.1.15,2013-06-26 07:01:00,
2013-06-26 02:06:00,72.6,70.1,29.52,NE,51,0.0,1.0,92,0.00,,,0.00,Wunderground v.1.15,2013-06-26 07:06:00,
2013-06-26 02:11:00,72.6,70.1,29.52,NE,51,0.0,1.0,92,0.00,,,0.00,Wunderground v.1.15,2013-06-26 07:11:00,
2013-06-26 02:16:00,72.5,70.0,29.51,NE,51,0.0,1.0,92,0.00,,,0.00,Wunderground v.1.15,2013-06-26 07:16:00,
2013-06-26 02:21:00,72.4,69.9,29.51,NE,51,0.0,1.0,92,0.00,,,0.00,Wunderground v.1.15,2013-06-26 07:21:00,
2013-06-26 02:27:00,72.3,69.8,29.51,NE,51,0.0,1.0,92,0.00,,,0.00,Wunderground v.1.15,2013-06-26 07:27:00,
2013-06-26 02:32:00,72.3,69.8,29.51,NE,51,0.0,1.0,92,0.00,,,0.00,Wunderground v.1.15,2013-06-26 07:32:00,
2013-06-26 02:37:00,72.1,69.6,29.50,NE,51,0.0,1.0,92,0.00,,,0.00,Wunderground v.1.15,2013-06-26 07:37:00,
2013-06-26 02:42:00,72.0,69.5,29.50,NE,51,0.0,1.0,92,0.00,,,0.00,Wunderground v.1.15,2013-06-26 07:42:00,
2013-06-26 02:47:00,72.3,69.5,29.50,NE,51,0.0,1.0,91,0.00,,,0.00,Wunderground v.1.15,2013-06-26 07:47:00,
2013-06-26 02:52:00,72.4,69.6,29.50,NE,51,0.0,1.0,91,0.00,,,0.00,Wunderground v.1.15,2013-06-26 07:52:00,
2013-06-26 02:57:00,72.4,69.9,29.50,NE,51,0.0,1.0,92,0.00,,,0.00,Wunderground v.1.15,2013-06-26 07:57:00,
2013-06-26 03:02:00,72.4,69.9,29.50,NE,51,0.0,1.0,92,0.00,,,0.00,Wunderground v.1.15,2013-06-26 08:02:00,
2013-06-26 03:07:00,72.1,69.6,29.50,NE,51,0.0,1.0,92,0.00,,,0.00,Wunderground v.1.15,2013-06-26 08:07:00,
2013-06-26 03:12:00,71.9,69.4,29.50,NE,51,0.0,1.0,92,0.00,,,0.00,Wunderground v.1.15,2013-06-26 08:12:00,
2013-06-26 03:18:00,71.8,69.3,29.50,NE,51,0.0,1.0,92,0.00,,,0.00,Wunderground v.1.15,2013-06-26 08:18:00,
2013-06-26 03:23:00,71.8,69.3,29.50,NE,51,0.0,1.0,92,0.00,,,0.00,Wunderground v.1.15,2013-06-26 08:23:00,
2013-06-26 03:28:00,71.7,69.3,29.50,NE,51,0.0,1.0,92,0.00,,,0.00,Wunderground v.1.15,2013-06-26 08:28:00,
2013-06-26 03:33:00,71.7,69.3,29.50,NE,51,0.0,1.0,92,0.00,,,0.00,Wunderground v.1.15,2013-06-26 08:33:00,
2013-06-26 03:38:00,71.7,69.3,29.50,NE,51,0.0,1.0,92,0.00,,,0.00,Wunderground v.1.15,2013-06-26 08:38:00,
2013-06-26 03:43:00,71.6,69.2,29.50,NE,51,0.0,1.0,92,0.00,,,0.00,Wunderground v.1.15,2013-06-26 08:43:00,
2013-06-26 03:49:00,71.5,69.1,29.50,NE,51,0.0,1.0,92,0.00,,,0.00,Wunderground v.1.15,2013-06-26 08:49:00,
2013-06-26 03:54:00,71.4,69.0,29.50,NE,51,0.0,1.0,92,0.00,,,0.00,Wunderground v.1.15,2013-06-26 08:54:00,
2013-06-26 03:59:00,71.3,68.9,29.51,NE,51,0.0,1.0,92,0.00,,,0.00,Wunderground v.1.15,2013-06-26 08:59:00,
2013-06-26 04:04:00,71.4,69.0,29.50,NE,51,0.0,1.0,92,0.00,,,0.00,Wunderground v.1.15,2013-06-26 09:04:00,
2013-06-26 04:09:00,71.2,68.8,29.51,NE,51,0.0,1.0,92,0.00,,,0.00,Wunderground v.1.15,2013-06-26 09:09:00,
2013-06-26 04:15:00,71.2,68.8,29.51,NE,51,0.0,1.0,92,0.00,,,0.00,Wunderground v.1.15,2013-06-26 09:15:00,
2013-06-26 04:20:00,71.2,68.8,29.51,NE,51,0.0,1.0,92,0.00,,,0.00,Wunderground v.1.15,2013-06-26 09:20:00,
2013-06-26 04:25:00,71.2,68.8,29.51,NE,51,0.0,1.0,92,0.00,,,0.00,Wunderground v.1.15,2013-06-26 09:25:00,
2013-06-26 04:30:00,71.1,68.7,29.51,NE,51,0.0,1.0,92,0.00,,,0.00,Wunderground v.1.15,2013-06-26 09:30:00,
2013-06-26 04:35:00,71.1,68.7,29.52,NE,51,0.0,1.0,92,0.00,,,0.00,Wunderground v.1.15,2013-06-26 09:35:00,
2013-06-26 04:41:00,71.1,68.3,29.52,NE,51,0.0,1.0,91,0.00,,,0.00,Wunderground v.1.15,2013-06-26 09:41:00,
2013-06-26 04:46:00,70.9,68.5,29.51,NE,51,0.0,1.0,92,0.00,,,0.00,Wunderground v.1.15,2013-06-26 09:46:00,
2013-06-26 04:51:00,70.8,68.4,29.51,NE,51,0.0,1.0,92,0.00,,,0.00,Wunderground v.1.15,2013-06-26 09:51:00,
2013-06-26 04:56:00,70.8,68.4,29.51,NE,51,0.0,1.0,92,0.00,,,0.00,Wunderground v.1.15,2013-06-26 09:56:00,
2013-06-26 05:01:00,71.0,68.2,29.51,NE,51,0.0,1.0,91,0.00,,,0.00,Wunderground v.1.15,2013-06-26 10:01:00,
2013-06-26 05:07:00,71.0,68.2,29.51,NE,51,0.0,1.0,91,0.00,,,0.00,Wunderground v.1.15,2013-06-26 10:07:00,
2013-06-26 05:12:00,70.9,68.5,29.50,NE,51,0.0,1.0,92,0.00,,,0.00,Wunderground v.1.15,2013-06-26 10:12:00,
2013-06-26 05:17:00,70.8,68.4,29.50,NE,51,0.0,1.0,92,0.00,,,0.00,Wunderground v.1.15,2013-06-26 10:17:00,
2013-06-26 05:22:00,70.8,68.0,29.50,ENE,68,0.0,1.0,91,0.00,,,0.00,Wunderground v.1.15,2013-06-26 10:22:00,
2013-06-26 05:27:00,70.8,68.0,29.50,ENE,65,0.0,1.0,91,0.00,,,0.00,Wunderground v.1.15,2013-06-26 10:27:00,
2013-06-26 05:33:00,71.1,68.3,29.51,ENE,65,0.0,1.0,91,0.00,,,0.00,Wunderground v.1.15,2013-06-26 10:33:00,
2013-06-26 05:38:00,71.1,68.3,29.50,ENE,65,0.0,1.0,91,0.00,,,0.00,Wunderground v.1.15,2013-06-26 10:38:00,
2013-06-26 05:43:00,71.0,68.2,29.50,ENE,65,0.0,1.0,91,0.00,,,0.00,Wunderground v.1.15,2013-06-26 10:43:00,
2013-06-26 05:48:00,70.8,68.4,29.50,ENE,65,0.0,1.0,92,0.00,,,0.00,Wunderground v.1.15,2013-06-26 10:48:00,
2013-06-26 05:53:00,70.6,68.2,29.49,ENE,65,0.0,1.0,92,0.00,,,0.00,Wunderground v.1.15,2013-06-26 10:53:00,
2013-06-26 05:59:00,70.6,67.8,29.50,ENE,65,0.0,1.0,91,0.00,,,0.00,Wunderground v.1.15,2013-06-26 10:59:00,
2013-06-26 06:04:00,70.8,68.0,29.51,ENE,65,0.0,1.0,91,0.00,,,0.00,Wunderground v.1.15,2013-06-26 11:04:00,
2013-06-26 06:09:00,70.8,68.0,29.52,WNW,283,0.0,1.0,91,0.00,,,0.00,Wunderground v.1.15,2013-06-26 11:09:00,
2013-06-26 06:14:00,70.8,68.0,29.52,WNW,282,0.0,1.0,91,0.00,,,0.00,Wunderground v.1.15,2013-06-26 11:14:00,
2013-06-26 06:19:00,70.9,68.1,29.52,WNW,283,0.0,1.0,91,0.00,,,0.00,Wunderground v.1.15,2013-06-26 11:19:00,
2013-06-26 06:25:00,71.0,68.2,29.53,West,281,0.0,1.0,91,0.00,,,0.00,Wunderground v.1.15,2013-06-26 11:25:00,
2013-06-26 06:30:00,71.2,68.4,29.53,WNW,283,0.0,1.0,91,0.00,,,0.00,Wunderground v.1.15,2013-06-26 11:30:00,
2013-06-26 06:35:00,71.4,68.6,29.53,WNW,283,0.0,1.0,91,0.00,,,0.00,Wunderground v.1.15,2013-06-26 11:35:00,
2013-06-26 06:40:00,71.2,68.4,29.52,WNW,283,0.0,1.0,91,0.00,,,0.00,Wunderground v.1.15,2013-06-26 11:40:00,
2013-06-26 06:45:00,71.4,68.6,29.52,WNW,283,0.0,1.0,91,0.00,,,0.00,Wunderground v.1.15,2013-06-26 11:45:00,
2013-06-26 06:50:00,71.4,68.6,29.52,WNW,283,0.0,1.0,91,0.00,,,0.00,Wunderground v.1.15,2013-06-26 11:50:00,
2013-06-26 06:55:00,71.4,68.6,29.51,WNW,283,0.0,1.0,91,0.00,,,0.00,Wunderground v.1.15,2013-06-26 11:55:00,
2013-06-26 07:00:00,71.5,68.7,29.51,WNW,283,0.0,1.0,91,0.00,,,0.00,Wunderground v.1.15,2013-06-26 12:00:00,
2013-06-26 07:05:00,71.7,68.9,29.51,NNE,15,0.0,1.0,91,0.00,,,0.00,Wunderground v.1.15,2013-06-26 12:05:00,
2013-06-26 07:10:00,71.7,68.9,29.51,ENE,60,0.0,1.0,91,0.00,,,0.00,Wunderground v.1.15,2013-06-26 12:10:00,
2013-06-26 07:16:00,71.9,69.1,29.51,ENE,59,0.0,1.0,91,0.00,,,0.00,Wunderground v.1.15,2013-06-26 12:16:00,
2013-06-26 07:21:00,72.2,69.4,29.51,North,360,0.0,1.0,91,0.00,,,0.00,Wunderground v.1.15,2013-06-26 12:21:00,
2013-06-26 07:26:00,72.4,69.6,29.51,North,359,0.0,1.0,91,0.00,,,0.00,Wunderground v.1.15,2013-06-26 12:26:00,
2013-06-26 07:31:00,72.8,70.0,29.51,North,360,0.0,1.0,91,0.00,,,0.00,Wunderground v.1.15,2013-06-26 12:31:00,
2013-06-26 07:36:00,73.3,70.2,29.50,WNW,299,0.0,1.0,90,0.00,,,0.00,Wunderground v.1.15,2013-06-26 12:36:00,
2013-06-26 07:42:00,73.5,70.7,29.49,WNW,302,0.0,1.0,91,0.00,,,0.00,Wunderground v.1.15,2013-06-26 12:42:00,
2013-06-26 07:47:00,73.7,70.9,29.48,North,355,0.0,2.0,91,0.00,,,0.00,Wunderground v.1.15,2013-06-26 12:47:00,
2013-06-26 07:52:00,74.3,71.2,29.49,West,267,1.0,1.0,90,0.00,,,0.00,Wunderground v.1.15,2013-06-26 12:52:00,
2013-06-26 07:57:00,74.8,72.0,29.50,West,267,1.0,1.0,91,0.00,,,0.00,Wunderground v.1.15,2013-06-26 12:57:00,
2013-06-26 08:02:00,75.2,73.0,29.51,WSW,257,1.0,1.0,93,0.00,,,0.00,Wunderground v.1.15,2013-06-26 13:02:00,
2013-06-26 08:08:00,75.4,73.2,29.51,WSW,248,0.0,1.0,93,0.00,,,0.00,Wunderground v.1.15,2013-06-26 13:08:00,
2013-06-26 08:13:00,75.6,73.4,29.51,WSW,249,0.0,1.0,93,0.00,,,0.00,Wunderground v.1.15,2013-06-26 13:13:00,
2013-06-26 08:18:00,75.6,73.4,29.50,NW,316,0.0,1.0,93,0.00,,,0.00,Wunderground v.1.15,2013-06-26 13:18:00,
2013-06-26 08:23:00,75.5,73.3,29.50,NW,307,0.0,1.0,93,0.00,,,0.00,Wunderground v.1.15,2013-06-26 13:23:00,
2013-06-26 08:28:00,75.6,73.4,29.50,NW,305,0.0,1.0,93,0.00,,,0.00,Wunderground v.1.15,2013-06-26 13:28:00,
2013-06-26 08:34:00,75.7,73.5,29.51,NW,305,0.0,1.0,93,0.00,,,0.00,Wunderground v.1.15,2013-06-26 13:34:00,
2013-06-26 08:39:00,75.7,73.5,29.51,NW,305,0.0,1.0,93,0.00,,,0.00,Wunderground v.1.15,2013-06-26 13:39:00,
2013-06-26 08:44:00,75.6,73.4,29.51,NW,304,0.0,1.0,93,0.00,,,0.00,Wunderground v.1.15,2013-06-26 13:44:00,
2013-06-26 08:49:00,75.5,73.3,29.51,NW,304,0.0,1.0,93,0.00,,,0.00,Wunderground v.1.15,2013-06-26 13:49:00,
2013-06-26 08:54:00,75.4,73.2,29.50,NW,305,0.0,1.0,93,0.00,,,0.00,Wunderground v.1.15,2013-06-26 13:54:00,
2013-06-26 08:59:00,75.4,73.2,29.51,NW,305,0.0,1.0,93,0.00,,,0.00,Wunderground v.1.15,2013-06-26 13:59:00,
2013-06-26 09:05:00,75.3,73.1,29.50,NW,305,0.0,1.0,93,0.00,,,0.00,Wunderground v.1.15,2013-06-26 14:05:00,
2013-06-26 09:10:00,75.3,73.1,29.50,NW,305,0.0,1.0,93,0.00,,,0.00,Wunderground v.1.15,2013-06-26 14:10:00,
2013-06-26 09:15:00,75.2,73.0,29.50,WNW,302,0.0,1.0,93,0.00,,,0.00,Wunderground v.1.15,2013-06-26 14:15:00,
2013-06-26 09:20:00,75.3,73.1,29.50,WNW,301,0.0,1.0,93,0.00,,,0.00,Wunderground v.1.15,2013-06-26 14:20:00,
2013-06-26 09:25:00,75.4,73.2,29.51,WNW,300,0.0,1.0,93,0.00,,,0.00,Wunderground v.1.15,2013-06-26 14:25:00,
2013-06-26 09:30:00,75.5,73.3,29.52,WNW,301,0.0,1.0,93,0.00,,,0.00,Wunderground v.1.15,2013-06-26 14:30:00,
2013-06-26 09:35:00,75.6,73.4,29.51,WNW,293,0.0,1.0,93,0.00,,,0.00,Wunderground v.1.15,2013-06-26 14:35:00,
2013-06-26 09:40:00,75.8,73.6,29.52,WNW,293,0.0,1.0,93,0.00,,,0.00,Wunderground v.1.15,2013-06-26 14:40:00,
2013-06-26 09:45:00,76.0,73.8,29.52,WNW,283,0.0,1.0,93,0.00,,,0.00,Wunderground v.1.15,2013-06-26 14:45:00,
2013-06-26 09:50:00,76.1,73.6,29.52,WNW,285,0.0,1.0,92,0.00,,,0.00,Wunderground v.1.15,2013-06-26 14:50:00,
2013-06-26 09:55:00,76.3,73.8,29.52,WNW,287,0.0,1.0,92,0.00,,,0.00,Wunderground v.1.15,2013-06-26 14:55:00,
2013-06-26 10:01:00,76.8,74.3,29.53,West,269,0.0,1.0,92,0.00,,,0.00,Wunderground v.1.15,2013-06-26 15:01:00,
2013-06-26 10:06:00,76.9,74.4,29.53,West,277,0.0,2.0,92,0.00,,,0.00,Wunderground v.1.15,2013-06-26 15:06:00,
2013-06-26 10:11:00,77.1,74.6,29.53,WNW,295,0.0,2.0,92,0.00,,,0.00,Wunderground v.1.15,2013-06-26 15:11:00,
2013-06-26 10:16:00,77.2,74.4,29.53,West,279,1.0,2.0,91,0.00,,,0.00,Wunderground v.1.15,2013-06-26 15:16:00,
2013-06-26 10:21:00,77.4,74.6,29.53,West,278,1.0,1.0,91,0.00,,,0.00,Wunderground v.1.15,2013-06-26 15:21:00,
2013-06-26 10:27:00,77.5,74.7,29.53,West,276,0.0,1.0,91,0.00,,,0.00,Wunderground v.1.15,2013-06-26 15:27:00,
2013-06-26 10:32:00,77.5,74.7,29.53,West,276,0.0,1.0,91,0.00,,,0.00,Wunderground v.1.15,2013-06-26 15:32:00,
2013-06-26 10:37:00,77.4,74.6,29.53,West,277,0.0,1.0,91,0.00,,,0.00,Wunderground v.1.15,2013-06-26 15:37:00,
2013-06-26 10:42:00,77.4,74.6,29.54,West,277,0.0,1.0,91,0.00,,,0.00,Wunderground v.1.15,2013-06-26 15:42:00,
2013-06-26 10:47:00,77.3,74.5,29.54,West,280,0.0,2.0,91,0.00,,,0.00,Wunderground v.1.15,2013-06-26 15:47:00,
2013-06-26 10:53:00,77.2,74.7,29.54,West,267,1.0,1.0,92,0.00,,,0.00,Wunderground v.1.15,2013-06-26 15:53:00,
2013-06-26 10:58:00,77.0,74.5,29.54,West,260,1.0,2.0,92,0.00,,,0.00,Wunderground v.1.15,2013-06-26 15:58:00,
2013-06-26 11:03:00,76.8,74.3,29.54,West,263,1.0,1.0,92,0.00,,,0.00,Wunderground v.1.15,2013-06-26 16:03:00,
2013-06-26 11:08:00,76.7,74.2,29.54,West,264,1.0,1.0,92,0.00,,,0.00,Wunderground v.1.15,2013-06-26 16:08:00,
2013-06-26 11:13:00,76.7,74.2,29.54,West,271,1.0,1.0,92,0.00,,,0.00,Wunderground v.1.15,2013-06-26 16:13:00,
2013-06-26 11:19:00,76.9,74.4,29.55,West,259,1.0,1.0,92,0.00,,,0.00,Wunderground v.1.15,2013-06-26 16:19:00,
2013-06-26 11:24:00,77.1,74.6,29.54,West,280,1.0,3.0,92,0.00,,,0.00,Wunderground v.1.15,2013-06-26 16:24:00,
2013-06-26 11:29:00,77.4,74.9,29.54,West,268,2.0,4.0,92,0.00,,,0.00,Wunderground v.1.15,2013-06-26 16:29:00,
2013-06-26 11:34:00,78.1,75.3,29.54,West,279,2.0,3.0,91,0.00,,,0.00,Wunderground v.1.15,2013-06-26 16:34:00,
2013-06-26 11:39:00,78.2,75.0,29.55,West,262,3.0,4.0,90,0.00,,,0.00,Wunderground v.1.15,2013-06-26 16:39:00,
2013-06-26 11:45:00,78.5,75.3,29.54,WSW,256,3.0,5.0,90,0.00,,,0.00,Wunderground v.1.15,2013-06-26 16:45:00,
2013-06-26 11:50:00,78.6,75.4,29.55,WNW,282,3.0,3.0,90,0.00,,,0.00,Wunderground v.1.15,2013-06-26 16:50:00,
2013-06-26 11:55:00,78.5,75.3,29.55,West,259,4.0,6.0,90,0.00,,,0.00,Wunderground v.1.15,2013-06-26 16:55:00,
2013-06-26 12:00:00,78.9,75.7,29.55,West,276,3.0,3.0,90,0.00,,,0.00,Wunderground v.1.15,2013-06-26 17:00:00,
2013-06-26 12:05:00,78.9,75.4,29.54,West,269,3.0,4.0,89,0.00,,,0.00,Wunderground v.1.15,2013-06-26 17:05:00,
2013-06-26 12:10:00,79.3,76.1,29.54,West,276,3.0,3.0,90,0.00,,,0.00,Wunderground v.1.15,2013-06-26 17:10:00,
2013-06-26 12:15:00,80.1,76.6,29.54,West,280,3.0,5.0,89,0.00,,,0.00,Wunderground v.1.15,2013-06-26 17:15:00,
2013-06-26 12:20:00,80.4,76.2,29.54,WNW,288,2.0,5.0,87,0.00,,,0.00,Wunderground v.1.15,2013-06-26 17:20:00,
2013-06-26 12:25:00,80.6,76.4,29.53,West,274,2.0,5.0,87,0.00,,,0.00,Wunderground v.1.15,2013-06-26 17:25:00,
2013-06-26 12:30:00,81.0,76.8,29.54,WNW,283,2.0,5.0,87,0.00,,,0.00,Wunderground v.1.15,2013-06-26 17:30:00,
2013-06-26 12:36:00,81.1,76.5,29.53,NNW,330,2.0,5.0,86,0.00,,,0.00,Wunderground v.1.15,2013-06-26 17:36:00,
2013-06-26 12:41:00,81.2,76.6,29.53,WNW,297,1.0,4.0,86,0.00,,,0.00,Wunderground v.1.15,2013-06-26 17:41:00,
2013-06-26 12:46:00,81.2,76.6,29.53,West,264,2.0,5.0,86,0.00,,,0.00,Wunderground v.1.15,2013-06-26 17:46:00,
2013-06-26 12:51:00,81.1,75.8,29.53,West,275,3.0,6.0,84,0.00,,,0.00,Wunderground v.1.15,2013-06-26 17:51:00,
2013-06-26 12:56:00,81.4,76.5,29.53,West,264,2.0,6.0,85,0.00,,,0.00,Wunderground v.1.15,2013-06-26 17:56:00,
2013-06-26 13:02:00,81.7,76.4,29.53,SW,226,3.0,3.0,84,0.00,,,0.00,Wunderground v.1.15,2013-06-26 18:02:00,
2013-06-26 13:07:00,82.2,76.2,29.53,WSW,255,3.0,6.0,82,0.00,,,0.00,Wunderground v.1.15,2013-06-26 18:07:00,
2013-06-26 13:12:00,82.4,75.6,29.53,SW,222,4.0,4.0,80,0.00,,,0.00,Wunderground v.1.15,2013-06-26 18:12:00,
2013-06-26 13:17:00,83.0,75.4,29.53,West,260,3.0,5.0,78,0.00,,,0.00,Wunderground v.1.15,2013-06-26 18:17:00,
2013-06-26 13:22:00,83.2,75.6,29.53,West,263,3.0,8.0,78,0.00,,,0.00,Wunderground v.1.15,2013-06-26 18:22:00,
2013-06-26 13:27:00,83.2,74.8,29.53,West,260,4.0,8.0,76,0.00,,,0.00,Wunderground v.1.15,2013-06-26 18:27:00,
2013-06-26 13:33:00,83.7,76.1,29.53,West,263,3.0,4.0,78,0.00,,,0.00,Wunderground v.1.15,2013-06-26 18:33:00,
2013-06-26 13:38:00,84.0,75.6,29.53,West,262,3.0,7.0,76,0.00,,,0.00,Wunderground v.1.15,2013-06-26 18:38:00,
2013-06-26 13:43:00,84.1,76.9,29.53,WSW,255,3.0,4.0,79,0.00,,,0.00,Wunderground v.1.15,2013-06-26 18:43:00,
2013-06-26 13:48:00,84.7,76.7,29.53,WSW,250,3.0,5.0,77,0.00,,,0.00,Wunderground v.1.15,2013-06-26 18:48:00,
2013-06-26 13:53:00,84.7,75.9,29.53,West,264,3.0,7.0,75,0.00,,,0.00,Wunderground v.1.15,2013-06-26 18:53:00,
2013-06-26 13:59:00,85.1,75.5,29.52,West,260,3.0,7.0,73,0.00,,,0.00,Wunderground v.1.15,2013-06-26 18:59:00,
2013-06-26 14:04:00,85.0,74.5,29.52,WNW,298,3.0,6.0,71,0.00,,,0.00,Wunderground v.1.15,2013-06-26 19:04:00,
2013-06-26 14:09:00,84.7,74.3,29.52,WSW,256,4.0,4.0,71,0.00,,,0.00,Wunderground v.1.15,2013-06-26 19:09:00,
2013-06-26 14:14:00,84.3,74.7,29.52,West,277,4.0,6.0,73,0.00,,,0.00,Wunderground v.1.15,2013-06-26 19:14:00,
2013-06-26 14:20:00,84.1,74.5,29.53,WSW,255,3.0,4.0,73,0.00,,,0.00,Wunderground v.1.15,2013-06-26 19:20:00,
2013-06-26 14:25:00,83.4,74.2,29.53,SW,229,3.0,4.0,74,0.00,,,0.00,Wunderground v.1.15,2013-06-26 19:25:00,
2013-06-26 14:30:00,83.0,74.3,29.53,WSW,252,2.0,2.0,75,0.00,,,0.00,Wunderground v.1.15,2013-06-26 19:30:00,
2013-06-26 14:35:00,83.6,74.0,29.53,West,277,3.0,6.0,73,0.00,,,0.00,Wunderground v.1.15,2013-06-26 19:35:00,
2013-06-26 14:40:00,83.5,73.9,29.53,West,259,4.0,5.0,73,0.00,,,0.00,Wunderground v.1.15,2013-06-26 19:40:00,
2013-06-26 14:45:00,84.1,74.5,29.54,West,269,5.0,9.0,73,0.00,,,0.00,Wunderground v.1.15,2013-06-26 19:45:00,
2013-06-26 14:51:00,84.8,73.5,29.53,SW,234,5.0,5.0,69,0.00,,,0.00,Wunderground v.1.15,2013-06-26 19:51:00,
2013-06-26 14:56:00,85.0,74.1,29.54,West,262,5.0,6.0,70,0.00,,,0.00,Wunderground v.1.15,2013-06-26 19:56:00,
2013-06-26 15:01:00,85.2,73.0,29.54,West,264,4.0,4.0,67,0.00,,,0.00,Wunderground v.1.15,2013-06-26 20:01:00,
2013-06-26 15:06:00,85.5,73.7,29.54,WSW,246,4.0,4.0,68,0.00,,,0.00,Wunderground v.1.15,2013-06-26 20:06:00,
2013-06-26 15:11:00,85.7,73.5,29.54,WNW,293,4.0,4.0,67,0.00,,,0.00,Wunderground v.1.15,2013-06-26 20:11:00,
2013-06-26 15:17:00,85.9,72.8,29.55,SW,233,3.0,8.0,65,0.00,,,0.00,Wunderground v.1.15,2013-06-26 20:17:00,
2013-06-26 15:22:00,86.5,74.7,29.55,West,260,3.0,3.0,68,0.00,,,0.00,Wunderground v.1.15,2013-06-26 20:22:00,
2013-06-26 15:27:00,86.6,72.5,29.54,West,270,3.0,5.0,63,0.00,,,0.00,Wunderground v.1.15,2013-06-26 20:27:00,
2013-06-26 15:32:00,86.3,71.7,29.55,SW,231,3.0,4.0,62,0.00,,,0.00,Wunderground v.1.15,2013-06-26 20:32:00,
2013-06-26 15:37:00,86.2,73.0,29.55,West,269,3.0,4.0,65,0.00,,,0.00,Wunderground v.1.15,2013-06-26 20:37:00,
2013-06-26 15:42:00,85.9,73.2,29.55,WNW,294,2.0,3.0,66,0.00,,,0.00,Wunderground v.1.15,2013-06-26 20:42:00,
2013-06-26 15:47:00,85.2,72.1,29.55,West,259,2.0,5.0,65,0.00,,,0.00,Wunderground v.1.15,2013-06-26 20:47:00,
2013-06-26 15:52:00,85.1,70.6,29.55,West,280,2.0,2.0,62,0.00,,,0.00,Wunderground v.1.15,2013-06-26 20:52:00,
2013-06-26 15:57:00,85.8,72.7,29.55,WSW,255,3.0,6.0,65,0.00,,,0.00,Wunderground v.1.15,2013-06-26 20:57:00,
2013-06-26 16:02:00,86.0,72.4,29.55,NW,309,3.0,4.0,64,0.00,,,0.00,Wunderground v.1.15,2013-06-26 21:02:00,
2013-06-26 16:07:00,86.3,72.2,29.56,SW,218,3.0,5.0,63,0.00,,,0.00,Wunderground v.1.15,2013-06-26 21:07:00,
2013-06-26 16:12:00,86.3,71.7,29.56,West,266,3.0,7.0,62,0.00,,,0.00,Wunderground v.1.15,2013-06-26 21:12:00,
2013-06-26 16:18:00,86.3,70.8,29.56,SSW,211,3.0,7.0,60,0.00,,,0.00,Wunderground v.1.15,2013-06-26 21:18:00,
2013-06-26 16:23:00,86.2,70.2,29.56,West,273,3.0,8.0,59,0.00,,,0.00,Wunderground v.1.15,2013-06-26 21:23:00,
2013-06-26 16:28:00,86.1,70.6,29.56,WNW,284,4.0,8.0,60,0.00,,,0.00,Wunderground v.1.15,2013-06-26 21:28:00,
2013-06-26 16:33:00,86.1,71.6,29.57,WSW,240,3.0,4.0,62,0.00,,,0.00,Wunderground v.1.15,2013-06-26 21:33:00,
2013-06-26 16:38:00,86.0,70.0,29.57,SW,231,3.0,4.0,59,0.00,,,0.00,Wunderground v.1.15,2013-06-26 21:38:00,
2013-06-26 16:44:00,86.3,72.2,29.57,West,273,3.0,5.0,63,0.00,,,0.00,Wunderground v.1.15,2013-06-26 21:44:00,
2013-06-26 16:49:00,86.5,70.5,29.56,WNW,293,3.0,6.0,59,0.00,,,0.00,Wunderground v.1.15,2013-06-26 21:49:00,
2013-06-26 16:54:00,86.5,69.5,29.56,East,81,3.0,3.0,57,0.00,,,0.00,Wunderground v.1.15,2013-06-26 21:54:00,
2013-06-26 16:59:00,86.6,69.6,29.57,NNE,12,2.0,7.0,57,0.00,,,0.00,Wunderground v.1.15,2013-06-26 21:59:00,
2013-06-26 17:04:00,86.7,69.6,29.57,West,280,2.0,3.0,57,0.00,,,0.00,Wunderground v.1.15,2013-06-26 22:04:00,
2013-06-26 17:10:00,86.6,71.1,29.56,SW,235,2.0,2.0,60,0.00,,,0.00,Wunderground v.1.15,2013-06-26 22:10:00,
2013-06-26 17:15:00,85.8,70.8,29.56,SW,232,2.0,6.0,61,0.00,,,0.00,Wunderground v.1.15,2013-06-26 22:15:00,
2013-06-26 17:20:00,85.6,69.6,29.56,WSW,257,3.0,3.0,59,0.00,,,0.00,Wunderground v.1.15,2013-06-26 22:20:00,
2013-06-26 17:25:00,85.7,68.7,29.56,WNW,287,3.0,3.0,57,0.00,,,0.00,Wunderground v.1.15,2013-06-26 22:25:00,
2013-06-26 17:30:00,85.6,69.6,29.56,WNW,285,3.0,3.0,59,0.00,,,0.00,Wunderground v.1.15,2013-06-26 22:30:00,
2013-06-26 17:36:00,85.5,69.5,29.56,SW,229,3.0,6.0,59,0.00,,,0.00,Wunderground v.1.15,2013-06-26 22:36:00,
2013-06-26 17:41:00,85.2,68.8,29.56,West,262,3.0,7.0,58,0.00,,,0.00,Wunderground v.1.15,2013-06-26 22:41:00,
2013-06-26 17:46:00,85.0,70.0,29.56,WSW,253,3.0,7.0,61,0.00,,,0.00,Wunderground v.1.15,2013-06-26 22:46:00,
2013-06-26 17:51:00,84.9,70.9,29.56,West,262,3.0,3.0,63,0.00,,,0.00,Wunderground v.1.15,2013-06-26 22:51:00,
2013-06-26 17:56:00,84.7,70.7,29.56,SW,224,3.0,3.0,63,0.00,,,0.00,Wunderground v.1.15,2013-06-26 22:56:00,
2013-06-26 18:01:00,84.7,70.7,29.56,West,271,2.0,3.0,63,0.00,,,0.00,Wunderground v.1.15,2013-06-26 23:01:00,
2013-06-26 18:06:00,84.3,69.4,29.56,WSW,253,3.0,8.0,61,0.00,,,0.00,Wunderground v.1.15,2013-06-26 23:06:00,
2013-06-26 18:12:00,84.1,70.6,29.57,WSW,256,3.0,3.0,64,0.00,,,0.00,Wunderground v.1.15,2013-06-26 23:12:00,
2013-06-26 18:17:00,83.9,69.0,29.57,WSW,245,3.0,5.0,61,0.00,,,0.00,Wunderground v.1.15,2013-06-26 23:17:00,
2013-06-26 18:22:00,83.7,68.8,29.57,WSW,246,3.0,5.0,61,0.00,,,0.00,Wunderground v.1.15,2013-06-26 23:22:00,
2013-06-26 18:27:00,83.5,68.6,29.57,WNW,282,3.0,6.0,61,0.00,,,0.00,Wunderground v.1.15,2013-06-26 23:27:00,
2013-06-26 18:32:00,83.4,69.0,29.57,WSW,256,3.0,3.0,62,0.00,,,0.00,Wunderground v.1.15,2013-06-26 23:32:00,
2013-06-26 18:37:00,83.4,69.5,29.57,SW,224,3.0,6.0,63,0.00,,,0.00,Wunderground v.1.15,2013-06-26 23:37:00,
2013-06-26 18:42:00,83.0,68.6,29.57,WSW,256,3.0,3.0,62,0.00,,,0.00,Wunderground v.1.15,2013-06-26 23:42:00,
2013-06-26 18:47:00,82.5,68.6,29.57,WNW,283,3.0,3.0,63,0.00,,,0.00,Wunderground v.1.15,2013-06-26 23:47:00,
2013-06-26 18:53:00,82.2,68.8,29.58,SW,214,2.0,3.0,64,0.00,,,0.00,Wunderground v.1.15,2013-06-26 23:53:00,
2013-06-26 18:58:00,82.3,68.0,29.58,SW,225,2.0,4.0,62,0.00,,,0.00,Wunderground v.1.15,2013-06-26 23:58:00,
2013-06-26 19:03:00,82.5,69.1,29.58,WSW,238,3.0,3.0,64,0.00,,,0.00,Wunderground v.1.15,2013-06-27 00:03:00,
2013-06-26 19:08:00,82.3,68.4,29.58,WSW,253,3.0,3.0,63,0.00,,,0.00,Wunderground v.1.15,2013-06-27 00:08:00,
2013-06-26 19:13:00,82.0,68.6,29.58,WNW,291,2.0,3.0,64,0.00,,,0.00,Wunderground v.1.15,2013-06-27 00:13:00,
2013-06-26 19:17:00,81.8,69.3,29.58,WSW,245,2.0,3.0,66,0.00,,,0.00,Wunderground v.1.15,2013-06-27 00:17:00,
2013-06-26 19:23:00,81.7,67.9,29.58,West,273,1.0,8.0,63,0.00,,,0.00,Wunderground v.1.15,2013-06-27 00:23:00,
2013-06-26 19:28:00,81.6,68.7,29.58,West,262,2.0,8.0,65,0.00,,,0.00,Wunderground v.1.15,2013-06-27 00:28:00,
2013-06-26 19:33:00,81.5,67.7,29.58,WSW,240,2.0,4.0,63,0.00,,,0.00,Wunderground v.1.15,2013-06-27 00:33:00,
2013-06-26 19:38:00,81.4,68.1,29.58,WSW,252,2.0,4.0,64,0.00,,,0.00,Wunderground v.1.15,2013-06-27 00:38:00,
2013-06-26 19:43:00,81.2,68.3,29.58,WSW,239,2.0,2.0,65,0.00,,,0.00,Wunderground v.1.15,2013-06-27 00:43:00,
2013-06-26 19:48:00,80.9,68.0,29.58,SW,232,1.0,2.0,65,0.00,,,0.00,Wunderground v.1.15,2013-06-27 00:48:00,
2013-06-26 19:54:00,80.5,68.1,29.59,WSW,250,1.0,2.0,66,0.00,,,0.00,Wunderground v.1.15,2013-06-27 00:54:00,
2013-06-26 19:59:00,80.3,67.9,29.59,WNW,282,2.0,3.0,66,0.00,,,0.00,Wunderground v.1.15,2013-06-27 00:59:00,
2013-06-26 20:04:00,80.0,67.2,29.59,WSW,253,2.0,3.0,65,0.00,,,0.00,Wunderground v.1.15,2013-06-27 01:04:00,
2013-06-26 20:09:00,79.8,67.4,29.59,SW,236,1.0,3.0,66,0.00,,,0.00,Wunderground v.1.15,2013-06-27 01:09:00,
2013-06-26 20:14:00,79.7,67.3,29.59,West,271,1.0,2.0,66,0.00,,,0.00,Wunderground v.1.15,2013-06-27 01:14:00,
2013-06-26 20:20:00,79.4,67.0,29.59,West,267,1.0,1.0,66,0.00,,,0.00,Wunderground v.1.15,2013-06-27 01:20:00,
2013-06-26 20:25:00,79.1,66.8,29.59,WSW,250,0.0,2.0,66,0.00,,,0.00,Wunderground v.1.15,2013-06-27 01:25:00,
2013-06-26 20:30:00,79.0,67.1,29.59,SW,231,1.0,1.0,67,0.00,,,0.00,Wunderground v.1.15,2013-06-27 01:30:00,
2013-06-26 20:35:00,78.7,67.2,29.59,WSW,252,1.0,1.0,68,0.00,,,0.00,Wunderground v.1.15,2013-06-27 01:35:00,
2013-06-26 20:40:00,78.4,67.0,29.60,WSW,237,1.0,2.0,68,0.00,,,0.00,Wunderground v.1.15,2013-06-27 01:40:00,
2013-06-26 20:46:00,78.0,67.0,29.60,WSW,257,1.0,2.0,69,0.00,,,0.00,Wunderground v.1.15,2013-06-27 01:46:00,
2013-06-26 20:51:00,77.7,67.1,29.59,WSW,253,1.0,1.0,70,0.00,,,0.00,Wunderground v.1.15,2013-06-27 01:51:00,
2013-06-26 20:56:00,77.4,66.8,29.60,SW,222,0.0,1.0,70,0.00,,,0.00,Wunderground v.1.15,2013-06-27 01:56:00,
2013-06-26 21:01:00,77.2,67.1,29.60,WSW,237,0.0,1.0,71,0.00,,,0.00,Wunderground v.1.15,2013-06-27 02:01:00,
2013-06-26 21:06:00,77.0,66.9,29.60,SSW,207,0.0,2.0,71,0.00,,,0.00,Wunderground v.1.15,2013-06-27 02:06:00,
2013-06-26 21:12:00,76.9,67.2,29.60,WSW,250,0.0,1.0,72,0.00,,,0.00,Wunderground v.1.15,2013-06-27 02:12:00,
2013-06-26 21:17:00,76.6,66.9,29.60,WSW,245,1.0,2.0,72,0.00,,,0.00,Wunderground v.1.15,2013-06-27 02:17:00,
2013-06-26 21:22:00,76.4,67.1,29.60,West,276,1.0,1.0,73,0.00,,,0.00,Wunderground v.1.15,2013-06-27 02:22:00,
2013-06-26 21:27:00,76.1,66.8,29.61,West,262,1.0,2.0,73,0.00,,,0.00,Wunderground v.1.15,2013-06-27 02:27:00,
2013-06-26 21:32:00,75.9,67.0,29.61,WSW,248,1.0,1.0,74,0.00,,,0.00,Wunderground v.1.15,2013-06-27 02:32:00,
2013-06-26 21:38:00,75.8,66.5,29.61,WSW,248,0.0,1.0,73,0.00,,,0.00,Wunderground v.1.15,2013-06-27 02:38:00,
2013-06-26 21:43:00,75.7,66.8,29.61,WSW,238,0.0,1.0,74,0.00,,,0.00,Wunderground v.1.15,2013-06-27 02:43:00,
2013-06-26 21:48:00,75.7,66.4,29.61,WSW,247,0.0,2.0,73,0.00,,,0.00,Wunderground v.1.15,2013-06-27 02:48:00,
2013-06-26 21:53:00,75.6,66.3,29.62,SW,228,0.0,1.0,73,0.00,,,0.00,Wunderground v.1.15,2013-06-27 02:53:00,
2013-06-26 21:58:00,75.4,66.1,29.62,SW,227,0.0,1.0,73,0.00,,,0.00,Wunderground v.1.15,2013-06-27 02:58:00,
2013-06-26 22:04:00,75.2,66.3,29.63,SW,228,0.0,1.0,74,0.00,,,0.00,Wunderground v.1.15,2013-06-27 03:04:00,
2013-06-26 22:09:00,74.9,66.4,29.63,SW,219,0.0,1.0,75,0.00,,,0.00,Wunderground v.1.15,2013-06-27 03:09:00,
2013-06-26 22:14:00,74.7,66.2,29.63,SW,219,0.0,1.0,75,0.00,,,0.00,Wunderground v.1.15,2013-06-27 03:14:00,
2013-06-26 22:19:00,74.5,66.4,29.63,SW,229,0.0,1.0,76,0.00,,,0.00,Wunderground v.1.15,2013-06-27 03:19:00,
2013-06-26 22:24:00,74.2,66.5,29.64,SW,229,0.0,1.0,77,0.00,,,0.00,Wunderground v.1.15,2013-06-27 03:24:00,
2013-06-26 22:29:00,73.8,66.5,29.64,SW,231,0.0,1.0,78,0.00,,,0.00,Wunderground v.1.15,2013-06-27 03:29:00,
2013-06-26 22:34:00,73.6,65.9,29.64,WSW,237,0.0,2.0,77,0.00,,,0.00,Wunderground v.1.15,2013-06-27 03:34:00,
2013-06-26 22:39:00,73.4,66.1,29.64,SW,221,0.0,1.0,78,0.00,,,0.00,Wunderground v.1.15,2013-06-27 03:39:00,
2013-06-26 22:45:00,73.2,66.3,29.64,WSW,245,0.0,1.0,79,0.00,,,0.00,Wunderground v.1.15,2013-06-27 03:45:00,
2013-06-26 22:50:00,73.0,66.1,29.65,WSW,245,0.0,1.0,79,0.00,,,0.00,Wunderground v.1.15,2013-06-27 03:50:00,
2013-06-26 22:55:00,73.0,66.5,29.65,WSW,240,0.0,1.0,80,0.00,,,0.00,Wunderground v.1.15,2013-06-27 03:55:00,
2013-06-26 23:00:00,72.9,66.4,29.65,WSW,240,0.0,1.0,80,0.00,,,0.00,Wunderground v.1.15,2013-06-27 04:00:00,
2013-06-26 23:01:00,72.9,66.4,29.65,WSW,240,0.0,1.0,80,0.00,,,0.00,Wunderground v.1.15,2013-06-27 04:01:00,
2013-06-26 23:03:00,72.8,66.3,29.65,WSW,240,0.0,1.0,80,0.00,,,0.00,Wunderground v.1.15,2013-06-27 04:03:00,
2013-06-26 23:04:00,72.8,66.3,29.65,WSW,240,0.0,1.0,80,0.00,,,0.00,Wunderground v.1.15,2013-06-27 04:04:00,
2013-06-26 23:09:00,72.7,66.2,29.65,WSW,240,0.0,1.0,80,0.00,,,0.00,Wunderground v.1.15,2013-06-27 04:09:00,
2013-06-26 23:14:00,72.6,66.1,29.65,WSW,240,0.0,1.0,80,0.00,,,0.00,Wunderground v.1.15,2013-06-27 04:14:00,
2013-06-26 23:17:00,72.5,66.3,29.65,WSW,241,0.0,1.0,81,0.00,,,0.00,Wunderground v.1.15,2013-06-27 04:17:00,
2013-06-26 23:22:00,72.3,66.1,29.65,WSW,240,0.0,1.0,81,0.00,,,0.00,Wunderground v.1.15,2013-06-27 04:22:00,
2013-06-26 23:27:00,72.1,65.9,29.65,WSW,240,0.0,1.0,81,0.00,,,0.00,Wunderground v.1.15,2013-06-27 04:27:00,
2013-06-26 23:32:00,72.1,66.3,29.65,WSW,240,0.0,1.0,82,0.00,,,0.00,Wunderground v.1.15,2013-06-27 04:32:00,
2013-06-26 23:37:00,71.9,66.1,29.65,WSW,240,0.0,1.0,82,0.00,,,0.00,Wunderground v.1.15,2013-06-27 04:37:00,
2013-06-26 23:43:00,71.5,66.1,29.65,WSW,240,0.0,1.0,83,0.00,,,0.00,Wunderground v.1.15,2013-06-27 04:43:00,
2013-06-26 23:48:00,71.4,66.0,29.65,WSW,240,0.0,1.0,83,0.00,,,0.00,Wunderground v.1.15,2013-06-27 04:48:00,
2013-06-26 23:53:00,71.4,66.3,29.65,WSW,240,0.0,1.0,84,0.00,,,0.00,Wunderground v.1.15,2013-06-27 04:53:00,
2013-06-26 23:58:00,71.3,66.9,29.65,WSW,240,0.0,1.0,86,0.00,,,0.00,Wunderground v.1.15,2013-06-27 04:58:00,